PDT,Max TemperatureF,Mean TemperatureF,Min TemperatureF,Max Dew PointF,MeanDew PointF,Min DewpointF,Max Humidity, Mean Humidity, Min Humidity, Max Sea Level PressureIn, Mean Sea Level PressureIn, Min Sea Level PressureIn, Max VisibilityMiles, Mean VisibilityMiles, Min VisibilityMiles, Max Wind SpeedMPH, Mean Wind SpeedMPH, Max Gust SpeedMPH,PrecipitationIn, CloudCover, Events, WindDirDegrees
2013-3-1,55,50,45,49,46,44,97,88,75,30.26,30.23,30.21,10,10,5,12,4,,0.00,6,Rain,110
2013-3-2,48,44,39,47,42,31,97,88,67,30.22,30.14,30.07,10,7,0,20,6,31,0.05,7,Fog-Rain,265
2013-3-3,48,41,34,37,33,30,92,72,56,30.31,30.27,30.21,10,10,10,17,11,23,0.00,1,,265
2013-3-4,45,38,30,36,32,27,92,79,63,30.31,30.17,29.95,10,10,10,10,6,,0.00,3,,105
2013-3-5,46,40,34,39,36,31,93,82,63,29.93,29.81,29.75,10,10,5,10,5,,0.12,7,Rain,262
2013-3-6,43,41,39,39,38,37,97,88,82,29.88,29.72,29.63,10,10,9,8,3,,0.29,8,Rain,120
2013-3-7,48,42,35,41,38,34,100,90,74,30.11,30.03,29.89,10,9,2,7,2,,0.03,7,Rain,207
2013-3-8,48,42,34,40,36,31,93,82,63,30.25,30.14,30.09,10,10,10,8,5,,0.00,6,,212
2013-3-9,48,39,30,39,35,29,96,76,61,30.51,30.43,30.26,10,10,10,9,6,,0.00,3,,262
2013-3-10,44,40,37,42,39,36,97,88,76,30.50,30.45,30.42,10,10,4,7,4,,0.10,8,Rain,276
2013-3-11,48,42,37,42,40,36,97,89,77,30.45,30.32,30.09,10,10,2,10,2,,0.03,8,Rain,201
2013-3-12,52,48,44,50,46,42,97,93,89,30.09,30.03,29.97,10,8,1,8,2,,0.42,8,Rain,89
2013-3-13,55,50,46,49,47,44,97,92,83,30.14,30.09,30.03,10,7,0,9,3,,0.07,7,Fog-Rain,83
2013-3-14,53,50,46,48,45,42,97,89,71,30.12,30.03,30.00,10,8,0,9,4,,0.00,6,Fog-Rain,251
2013-3-15,54,44,37,47,44,36,100,93,80,30.19,30.16,30.12,10,7,0,10,2,,0.05,6,Fog-Rain,302
2013-3-16,46,42,39,45,40,32,97,88,65,30.12,30.00,29.90,10,9,2,18,5,30,0.19,6,Rain,284
2013-3-17,48,42,37,34,31,28,83,68,53,30.19,30.12,29.99,10,10,9,17,13,32,0.02,5,Rain,270
2013-3-18,51,42,36,36,32,28,86,68,44,30.26,30.18,30.06,10,10,10,21,8,28,0.03,3,Rain,280
2013-3-19,46,39,32,39,34,29,97,82,63,30.22,29.92,29.49,10,10,10,10,3,,0.01,3,Rain,205
2013-3-20,52,44,39,46,38,27,97,81,60,29.99,29.55,29.25,10,9,5,20,7,40,0.38,8,Rain,275
2013-3-21,46,40,36,37,32,27,93,78,63,30.21,30.15,30.02,10,10,4,18,10,29,0.11,6,Rain-Snow,271
2013-3-22,46,39,33,31,29,26,85,67,49,30.38,30.30,30.22,10,10,10,13,9,18,0.00,2,,267
2013-3-23,48,40,33,35,31,28,85,72,56,30.39,30.36,30.31,10,10,10,10,6,,0.00,4,,249
2013-3-24,46,39,32,36,32,29,92,78,58,30.31,30.23,30.14,10,10,10,7,4,,0.00,5,,157
2013-3-25,53,43,33,36,32,26,96,69,35,30.14,30.06,29.98,10,10,10,9,4,,0.00,2,,166
2013-3-26,54,46,39,40,37,30,86,68,40,30.03,30.00,29.98,10,10,10,8,4,,0.00,7,,322
2013-3-27,57,48,42,44,40,38,90,75,55,30.01,29.98,29.97,10,10,10,9,3,,0.00,6,Rain,163
2013-3-28,57,50,43,44,42,39,90,79,59,30.16,30.08,30.01,10,10,10,9,5,,0.00,6,Rain,270
2013-3-29,55,46,37,45,41,36,100,91,72,30.28,30.24,30.17,10,4,0,13,5,,0.00,4,Fog,326
2013-3-30,60,48,37,44,39,35,97,78,53,30.29,30.23,30.12,10,8,0,10,3,,0.00,0,Fog,149
2013-3-31,64,52,41,43,39,35,85,61,37,30.11,30.02,29.94,10,10,10,13,6,,0.00,0,,187